User: anonymous   Login
Location: Unspecified
(22.6800°N, 112.2000°E)
Time: 07:08:13
(UTC+08:00)
Language:

Vanguard 3 - Orbit

View from above orbital plane
View from above orbital plane
View from above satellite
View from above satellite

Ground track
Ground track

The orbit data is extracted from the following two-line orbital elements,

1 00020U 59007A   21209.33505779  .00000083  00000-0  18339-4 0  9995
2 00020  33.3531 175.9322 1666101 260.0109  80.9191 11.55808354277576
Epoch (UTC): 28 July 2021 08:02:28
Eccentricity: 0.1666101
inclination: 33.3531°
perigee height: 508 km
apogee height: 3261 km
right ascension of ascending node: 175.9322°
argument of perigee: 260.0109°
revolutions per day: 11.55808354
mean anomaly at epoch: 80.9191°
orbit number at epoch: 27757

The dashed part of the orbit path shows where the satellite is in the earth's shadow,  

DLR